星链-31781 (STARLINK-31781 )

导读

STARLINK-31781是美国太空探索技术公司(SpaceX)星链星座中的通信卫星,于2024年5月3日发射入轨,属于星链低轨互联网星座组网卫星。该卫星运行于近地轨道,依托星链系统的先进通信技术,为全球提供高速低延迟互联网服务,重点覆盖偏远、网络基础设施薄弱区域。它的成功入轨进一步扩充了星链星座规模,提升了星座覆盖的稳定性与服务容量,是SpaceX推进全球卫星互联网部署的重要组成部分。

Basic Information
目录编号:
59632
目录名称:
STARLINK-31781
国际标识:
2024-082B
轨道中心:
EARTH
卫星名称:
星链-31781
卫星全名:
星链-31781 (STARLINK-31781 )
卫星状态:
在轨 (已飞行854 天)
发射日期:
2024-05-03 UTC
国别 :
美国 (US)
星等 :
--
Orbit Information
数据来源 国际轨道数据 AOE轨道数据
星历时间 2026-09-04T06:44:46+0800
10小时前
查看轨道信息
2026-09-03T23:00:00+0800
18小时前
查看轨道信息
半长轴 6861.199km 6861.184km
偏心率 0.0001185 0.0001017
轨道倾角 43.001° 42.997°
近地点辐角 265.110° 248.875°
升交点赤经 198.991° 200.816°
平近点角 94.961° 134.220°
近地点 482.248km 482.349km
远地点 483.876km 483.745km
周期 94.267分钟 94.267分钟
每日圈数 15.275757 15.275808
Detailed Information
固有亮度:
5
最大亮度:
1.5
卫星平台:
Starlink v2.0 mini
覆盖范围:
全球
运营商:
太空探索技术公司
运营商所在国:
美国
制造商(研发单位):
太空探索技术公司
制造商所在国:
美国
使用方式:
暂无
Satellite Introduction
星链(Starlink)计划是由太空探索技术公司(SpaceX)提出的一个巨型低轨卫星互联网星座项目,计划在2019年至2024年间在太空搭建由约1.2万颗卫星组成的“星链”网络,其中1584颗将部署在地球上空550千米处的近地轨道,并从2020年开始工作。该卫星仍在工作。
2D Orbit Map
3D Orbit Map
Orbit Altitude Analysis Chart
Orbit Inclination Analysis Chart
Orbit Comprehensive Analysis Chart
View Comprehensive Chart